UAL420 KMCI-KMEM

Flight info

Callsign UAL420
Flight time N/A
Altitude 39000
Route RACER8 SGF WHOLL BRBBQ3
Aircraft A346/H-SDE2E3FGHIJ3J4J5M1RWXY/LB1D1

Departure

Time 2026-05-08 02:04
Airport Kansas City International Airport (KMCI)

Arrival

Time N/A
Airport Memphis International Airport (KMEM)
Time Latitude Longitude Altitude Speed Heading
2026-05-08 01:51 39.30105 -94.71912 1023 ft 0 kts 171°
2026-05-08 01:55 39.30121 -94.71914 1023 ft 4 kts 187°
2026-05-08 01:56 39.30135 -94.71908 1023 ft 4 kts 230°
2026-05-08 01:56 39.30137 -94.71897 1023 ft 4 kts 276°
2026-05-08 01:56 39.30132 -94.71863 1023 ft 4 kts 284°
2026-05-08 01:56 39.30127 -94.71837 1023 ft 1 kts 283°
2026-05-08 01:57 39.30126 -94.71832 1023 ft 0 kts 283°
2026-05-08 01:58 39.30126 -94.71833 1023 ft 0 kts 283°
2026-05-08 01:58 39.30127 -94.71837 1023 ft 2 kts 283°
2026-05-08 01:59 39.30133 -94.71868 1023 ft 5 kts 283°
2026-05-08 01:59 39.30145 -94.71938 1023 ft 14 kts 283°
2026-05-08 01:59 39.30167 -94.72056 1023 ft 16 kts 283°
2026-05-08 01:59 39.30195 -94.72217 1023 ft 20 kts 283°
2026-05-08 02:00 39.30230 -94.72370 1023 ft 17 kts 300°
2026-05-08 02:00 39.30326 -94.72466 1023 ft 19 kts
2026-05-08 02:00 39.30468 -94.72436 1022 ft 22 kts 12°
2026-05-08 02:00 39.30629 -94.72390 1022 ft 25 kts 12°
2026-05-08 02:01 39.30803 -94.72336 1023 ft 27 kts 13°
2026-05-08 02:01 39.30992 -94.72282 1023 ft 29 kts 12°
2026-05-08 02:01 39.31190 -94.72225 1023 ft 30 kts 13°
2026-05-08 02:01 39.31399 -94.72163 1023 ft 31 kts 13°
2026-05-08 02:02 39.31617 -94.72100 1023 ft 32 kts 13°
2026-05-08 02:02 39.31839 -94.72032 1023 ft 33 kts 14°
2026-05-08 02:02 39.32036 -94.71971 1023 ft 21 kts 13°
2026-05-08 02:02 39.32125 -94.71946 1023 ft 15 kts 10°
2026-05-08 02:03 39.32180 -94.72023 1019 ft 16 kts 262°
2026-05-08 02:03 39.32110 -94.72104 1024 ft 15 kts 205°
2026-05-08 02:03 39.32001 -94.72149 1023 ft 18 kts 183°
2026-05-08 02:03 39.31869 -94.72186 1023 ft 21 kts 193°
2026-05-08 02:04 39.31446 -94.72311 1022 ft 109 kts 192°
2026-05-08 02:04 39.30434 -94.72608 1065 ft 183 kts 192°
2026-05-08 02:04 39.29141 -94.73026 1957 ft 193 kts 198°
2026-05-08 02:04 39.27859 -94.73450 3305 ft 186 kts 194°
2026-05-08 02:05 39.26517 -94.73396 4157 ft 205 kts 177°
2026-05-08 02:05 39.25073 -94.72944 4848 ft 221 kts 173°
2026-05-08 02:05 39.23526 -94.72501 5499 ft 235 kts 175°
2026-05-08 02:05 39.21845 -94.72107 6049 ft 258 kts 176°
2026-05-08 02:06 39.19989 -94.71659 6618 ft 283 kts 174°
2026-05-08 02:06 39.18018 -94.71157 7458 ft 293 kts 174°
2026-05-08 02:06 39.16002 -94.70641 8471 ft 299 kts 173°
2026-05-08 02:06 39.13931 -94.70116 9338 ft 308 kts 173°
2026-05-08 02:07 39.11795 -94.69577 10257 ft 316 kts 173°
2026-05-08 02:07 39.09594 -94.69024 11082 ft 331 kts 173°
2026-05-08 02:07 39.07280 -94.68446 11810 ft 347 kts 173°
2026-05-08 02:07 39.04838 -94.67842 12460 ft 367 kts 173°
2026-05-08 02:08 39.02269 -94.67207 13078 ft 386 kts 173°
2026-05-08 02:08 38.99561 -94.66534 13730 ft 403 kts 174°
2026-05-08 02:08 38.96811 -94.65853 14633 ft 411 kts 174°
2026-05-08 02:08 38.94000 -94.65065 15628 ft 418 kts 167°
2026-05-08 02:09 38.91330 -94.63346 16657 ft 428 kts 150°
2026-05-08 02:09 38.88912 -94.61167 17686 ft 433 kts 147°
2026-05-08 02:09 38.86468 -94.58865 18591 ft 438 kts 147°
2026-05-08 02:09 38.83981 -94.56573 19391 ft 443 kts 148°
2026-05-08 02:10 38.81438 -94.54303 20196 ft 447 kts 149°
2026-05-08 02:10 38.78838 -94.52040 21014 ft 451 kts 150°
2026-05-08 02:10 38.76211 -94.49785 21823 ft 456 kts 150°
2026-05-08 02:10 38.73554 -94.47523 22603 ft 461 kts 151°
2026-05-08 02:11 38.70862 -94.45242 23374 ft 467 kts 151°
2026-05-08 02:11 38.68142 -94.42942 24034 ft 472 kts 151°
2026-05-08 02:11 38.65379 -94.40605 24590 ft 480 kts 152°
2026-05-08 02:11 38.62572 -94.38236 25168 ft 486 kts 152°
2026-05-08 02:12 38.59739 -94.35846 25807 ft 490 kts 152°
2026-05-08 02:12 38.56880 -94.33438 26399 ft 494 kts 153°
2026-05-08 02:12 38.54001 -94.31014 26980 ft 497 kts 153°
2026-05-08 02:12 38.51095 -94.28574 27544 ft 501 kts 154°
2026-05-08 02:13 38.48169 -94.26120 28087 ft 506 kts 154°
2026-05-08 02:13 38.45222 -94.23651 28715 ft 508 kts 154°
2026-05-08 02:13 38.42273 -94.21177 29526 ft 505 kts 155°
2026-05-08 02:13 38.39342 -94.18717 30347 ft 503 kts 155°
2026-05-08 02:14 38.36426 -94.16275 31044 ft 501 kts 156°
2026-05-08 02:14 38.33513 -94.13843 31715 ft 499 kts 156°
2026-05-08 02:14 38.30611 -94.11423 32392 ft 498 kts 157°
2026-05-08 02:14 38.27718 -94.09014 33068 ft 496 kts 157°
2026-05-08 02:15 38.24831 -94.06612 33745 ft 495 kts 158°
2026-05-08 02:15 38.21816 -94.04105 34375 ft 493 kts 158°